Location: DaVinci Observatory
(43.1080°N, 78.6453°W)
Time: 12:20:40
(UTC-05:00)

Tiangong 2 - Pass Details

Date: 12 October 2017
Orbit: 386 x 390 km, 42.8° (Epoch: 10 December)

Event Time Altitude Azimuth Distance (km) Brightness Sun altitude
Exits shadow 05:18:37 31° 111° (ESE) 708 2.8 -23.7°
Drops below altitude 10° 05:20:38 10° 87° (E) 1,424 5.0 -23.4°
Sets 05:22:46 0° 81° (E) 2,282 6.5 -23.0°
